Theta_e
321 320 319 322 319 316 320 320 319 324 330 330 323 321 325 326 327 330 329 327 333 340 348 352 353 354 355 354 353 354 356 355 356 358 357 353 352 351 348 347 346 347 351 353 351 351 352 352 353 353 354 357 358 358 359 358 358 357 357 357 357 356 357
320 321 319 321 321 320 318 313 317 328 333 332 328 323 323 326 326 325 324 327 328 328 338 353 356 356 357 356 354 356 357 357 356 356 355 354 353 351 350 349 349 349 351 352 351 350 351 351 352 354 356 358 358 358 357 356 357 357 356 357 356 356 356
320 322 320 318 319 321 320 318 321 325 323 322 324 323 323 324 324 323 323 326 323 321 333 348 352 355 358 356 354 356 357 356 356 355 354 355 354 352 351 349 349 350 352 353 351 350 350 351 352 354 355 357 357 357 355 353 355 356 356 354 354 355 355
320 321 319 314 315 320 322 322 323 323 322 321 322 322 322 322 322 323 324 324 321 325 340 350 351 355 358 355 355 356 356 355 356 355 355 355 354 354 353 349 348 349 352 353 351 350 350 351 352 353 354 355 355 354 353 352 352 355 355 353 354 355 355
318 316 318 316 316 318 317 317 317 319 319 320 323 322 319 319 320 322 324 322 322 336 355 357 355 357 356 356 356 356 355 354 354 355 356 356 356 356 353 350 349 349 351 350 350 350 350 351 352 351 351 352 351 351 351 351 351 353 354 352 354 355 354
313 316 321 322 322 321 319 316 315 317 318 316 318 319 318 318 319 321 323 321 326 343 355 355 358 358 355 356 356 356 355 354 354 355 355 356 356 356 354 350 348 348 349 349 348 349 349 351 353 351 350 350 349 349 352 354 354 352 352 351 353 356 355
316 320 323 321 323 324 323 322 320 321 320 314 312 314 316 317 318 320 320 320 330 348 351 351 357 356 354 356 356 356 355 354 355 354 355 356 356 356 354 351 349 349 348 347 347 349 350 351 353 352 351 350 350 350 354 357 358 356 353 352 354 357 356
319 321 322 322 323 323 322 322 322 323 321 318 317 316 317 317 316 319 320 319 330 349 352 351 354 353 353 354 354 355 355 356 356 355 355 356 355 356 356 354 356 357 355 352 349 349 350 352 354 352 351 351 352 352 355 358 360 359 356 355 358 359 358
316 316 318 319 320 321 321 322 324 326 325 325 323 321 322 320 315 319 320 317 328 349 353 351 352 352 351 352 352 353 354 355 355 355 356 356 354 354 355 355 356 356 356 357 356 353 353 353 353 352 351 352 353 354 356 358 360 360 358 358 360 360 360
313 315 315 315 317 320 321 323 325 326 325 326 323 318 318 317 317 320 318 316 331 352 353 349 353 352 350 352 352 351 352 352 353 354 354 354 354 354 354 354 354 355 355 356 355 355 356 355 354 353 353 353 353 355 357 358 360 361 359 360 362 361 360
315 317 318 320 321 319 317 321 324 325 326 329 326 318 315 317 318 320 321 323 332 347 353 352 352 351 350 352 351 351 352 351 352 353 353 353 353 353 353 353 353 355 355 356 356 355 355 354 351 352 355 355 355 357 358 357 359 360 360 361 362 361 359
318 321 321 322 323 320 319 321 323 325 327 329 325 318 319 323 318 317 329 334 328 335 351 353 351 352 350 350 351 351 351 351 350 351 351 351 352 352 353 352 352 353 354 355 357 355 354 352 350 352 356 356 357 358 359 359 359 361 361 361 361 360 358
320 323 321 322 323 322 322 323 323 325 327 327 324 322 327 332 324 321 335 341 331 334 350 352 350 352 349 348 350 349 348 350 350 350 350 351 351 352 353 353 354 354 353 355 356 354 353 353 353 353 355 356 357 358 359 359 360 361 361 361 361 360 359
320 322 321 322 322 320 322 323 324 325 327 328 328 329 333 336 334 333 338 341 342 345 350 350 349 349 347 347 348 347 347 348 349 349 350 350 351 351 352 352 353 352 353 355 355 353 354 353 353 353 353 353 354 355 357 357 358 359 360 360 360 359 358
317 320 322 321 320 320 319 321 324 324 326 329 329 332 333 332 335 341 341 340 345 350 350 349 348 346 346 348 347 348 348 348 349 350 350 350 351 351 350 350 350 350 352 353 353 353 353 352 352 353 353 353 352 353 354 354 355 356 357 358 359 359 359
314 318 320 319 320 319 316 319 325 325 324 326 329 334 337 335 336 339 336 334 342 350 349 347 346 346 347 347 348 348 347 347 348 349 349 350 350 348 348 348 348 347 348 349 350 349 348 348 348 349 351 352 352 353 353 353 354 354 354 356 357 357 357
313 316 319 318 318 316 315 320 329 330 328 329 330 333 338 340 340 336 333 336 345 350 348 346 346 346 347 348 348 348 348 348 348 348 348 349 348 347 347 347 346 345 345 346 346 346 345 345 346 347 349 350 351 352 353 353 354 353 353 354 354 354 354
313 315 318 318 316 315 318 326 330 332 333 332 332 333 335 339 340 338 339 343 346 346 345 345 346 345 346 347 346 346 347 347 347 347 347 347 346 346 346 344 343 343 344 344 343 343 344 344 345 345 346 347 348 349 349 351 352 351 351 352 352 353 352
313 315 316 315 315 318 324 327 326 328 331 331 333 337 337 338 339 339 341 343 343 344 345 343 343 344 345 345 345 345 345 345 346 346 346 345 344 345 345 343 341 342 342 342 342 342 342 342 342 343 343 344 343 343 344 346 348 349 350 350 351 351 351
315 314 313 315 319 322 325 326 325 326 329 329 331 335 337 337 337 339 341 343 344 344 343 341 342 343 343 343 344 343 343 343 342 342 342 343 343 343 344 341 340 341 340 340 341 340 340 340 340 340 341 341 340 339 341 342 344 345 347 348 349 350 350
316 312 311 317 321 323 325 328 326 325 327 327 328 332 335 334 334 338 342 342 342 342 341 342 342 341 342 344 343 340 339 340 339 339 341 341 341 342 342 341 341 340 339 339 339 338 338 338 337 337 338 340 339 339 339 341 341 343 343 344 345 346 347
317 314 313 314 316 320 326 327 326 325 325 325 327 331 333 330 328 332 339 341 341 341 341 341 341 340 344 346 344 339 336 336 337 339 341 341 341 340 340 341 340 340 339 339 337 337 337 336 335 335 336 338 339 339 339 339 340 340 341 342 342 343 344
315 315 314 312 314 322 328 326 325 325 324 326 327 329 330 328 326 327 332 337 340 341 341 340 340 342 345 347 343 337 335 336 336 338 340 340 339 339 339 340 339 338 338 338 337 337 336 334 335 335 335 336 338 338 339 339 340 340 340 341 341 342 342
314 314 314 313 318 326 327 325 324 324 323 326 327 327 328 328 326 326 329 334 338 340 340 339 340 343 346 346 341 336 335 336 338 338 338 339 339 338 338 338 337 336 336 336 336 336 334 333 333 334 335 336 337 337 338 339 340 340 339 339 340 340 340
314 314 312 313 321 327 326 324 325 324 323 326 327 326 327 327 326 327 328 331 335 339 339 339 341 343 342 340 337 335 336 337 337 337 337 337 337 336 335 335 334 334 334 334 334 334 333 333 332 332 333 334 335 336 337 338 338 338 337 337 337 337 338
315 315 313 312 321 327 325 324 326 324 324 327 326 326 326 326 326 328 329 331 334 338 338 339 341 341 338 335 335 334 335 335 336 336 336 336 335 334 334 333 333 332 333 332 333 333 332 332 332 333 333 333 333 334 335 336 336 336 336 336 336 336 336
317 316 314 313 321 326 325 324 327 326 324 325 325 325 326 327 327 329 330 332 335 336 337 338 339 338 336 335 334 334 334 334 335 335 335 335 335 334 333 332 332 331 331 331 331 331 331 330 332 332 333 333 333 334 335 335 335 335 335 335 335 335 335
319 319 321 321 324 325 324 324 326 326 324 324 324 325 327 328 328 329 330 333 335 336 337 338 337 337 336 335 335 336 335 334 334 334 334 333 334 333 332 331 331 330 330 331 330 330 330 330 331 332 332 333 333 333 334 334 333 333 334 334 333 333 333
322 323 326 326 325 324 323 323 324 324 323 323 324 325 327 328 328 329 330 332 333 334 336 336 335 336 335 334 334 334 333 332 332 333 333 332 332 332 331 331 331 330 330 330 329 329 329 330 330 331 331 332 332 332 333 333 333 332 332 331 331 331 331
324 324 325 325 324 324 323 323 323 322 323 323 324 325 326 327 327 328 329 330 331 332 334 334 334 334 334 333 332 331 331 331 331 332 332 331 330 330 329 329 329 329 329 329 328 327 327 328 328 329 330 331 332 331 331 331 331 331 331 330 330 330 330
323 324 325 325 325 324 323 323 322 322 322 323 323 323 324 325 326 326 327 328 329 330 332 333 332 332 332 332 331 330 330 330 330 330 330 330 329 328 328 328 327 327 327 327 327 326 326 326 326 327 328 329 330 329 329 329 329 330 331 331 330 330 329
324 325 325 325 324 323 323 323 322 322 322 323 323 322 322 323 325 326 327 328 327 328 330 331 330 330 331 330 329 328 328 329 329 328 327 328 327 327 326 326 326 326 327 326 326 326 326 325 325 326 326 327 328 328 328 328 328 329 330 329 329 329 328
322 324 325 325 324 324 324 322 322 321 321 322 323 322 322 322 323 325 327 327 327 327 329 330 329 329 329 329 327 325 326 327 326 325 326 326 326 326 325 325 326 326 325 325 325 325 325 325 325 325 325 325 325 325 326 326 327 328 328 328 328 327 327
320 323 325 324 324 324 324 323 321 321 321 322 323 323 322 322 322 323 325 326 326 327 327 328 328 328 327 328 326 325 325 325 324 323 323 323 323 323 323 323 324 324 324 324 323 323 323 323 323 323 323 323 323 324 324 325 325 326 327 327 327 326 326
321 323 324 323 323 323 323 321 321 321 321 321 322 322 323 322 322 322 323 324 325 326 326 326 326 327 327 326 326 325 325 323 322 321 321 322 322 321 320 321 322 322 322 322 322 321 321 321 321 321 322 323 323 324 324 325 325 325 326 326 326 325 325
322 322 322 321 321 321 321 320 320 320 321 321 320 321 322 323 323 323 323 324 324 324 325 326 326 326 326 325 325 325 324 322 321 321 320 320 321 320 320 321 321 321 321 321 321 320 319 319 319 319 320 321 322 323 324 324 325 325 325 325 325 325 325
321 321 321 321 321 321 320 320 320 320 321 321 320 320 322 323 323 322 323 324 324 323 324 326 325 326 326 325 325 326 325 322 321 321 320 319 319 319 320 320 319 319 320 320 320 319 318 318 317 318 318 319 320 321 322 323 324 324 324 324 324 324 324
Wind_Speed
11 16 14 13 10 7 7 9 10 8 7 8 6 6 5 5 7 5 5 5 3 4 6 7 8 7 8 10 11 12 15 17 15 11 11 12 12 12 13 13 14 16 17 17 17 18 17 17 18 18 19 19 19 18 18 19 18 18 18 18 17 16 15
10 9 11 15 13 9 6 8 10 7 5 7 5 6 6 6 7 6 7 7 7 6 5 6 10 10 10 12 12 13 15 17 17 15 14 15 14 13 13 13 13 15 17 17 17 17 17 18 18 19 20 20 19 19 19 19 19 18 18 18 17 16 16
9 7 8 12 13 12 7 6 8 8 7 7 7 6 7 8 8 7 7 9 9 9 5 7 11 11 11 13 14 14 16 17 16 16 18 18 16 14 12 11 11 12 15 17 17 17 17 18 18 19 20 19 18 19 19 19 20 19 18 17 17 16 16
8 9 8 9 11 12 8 7 8 8 6 7 8 8 7 7 8 7 8 9 8 6 3 6 10 11 11 12 14 14 15 16 15 14 15 16 15 13 12 11 11 12 15 17 17 18 18 18 18 18 18 18 18 19 19 19 19 19 18 17 17 17 16
7 8 10 9 9 12 11 7 8 9 7 7 7 8 9 8 7 7 7 8 5 1 2 3 7 8 9 10 11 11 12 14 13 12 12 13 13 13 13 13 12 13 15 16 17 18 17 17 17 18 18 18 18 18 18 19 18 18 19 18 17 17 16
8 7 8 6 4 7 12 10 9 9 8 8 7 8 9 8 8 6 6 7 2 3 2 2 6 6 6 7 8 9 10 12 12 11 12 13 13 12 13 13 13 13 15 17 18 18 17 16 16 17 17 17 18 18 17 18 18 18 18 17 17 16 15
3 4 4 2 5 5 9 9 10 10 9 10 9 9 8 8 9 8 7 7 1 4 1 2 4 5 5 5 5 6 8 9 10 11 11 12 12 11 12 12 12 12 14 15 17 17 16 16 16 16 16 16 16 17 17 17 18 18 17 16 16 16 15
1 4 4 3 2 6 9 9 10 8 9 11 9 9 8 8 10 9 7 8 3 5 1 2 4 6 6 5 6 7 7 6 7 8 9 10 11 12 11 9 8 9 9 9 11 14 15 14 14 15 15 15 15 16 16 17 18 18 16 16 16 16 16
5 6 7 6 7 9 8 7 6 5 9 10 8 7 6 6 10 11 9 9 3 5 3 3 5 6 7 7 7 8 8 7 7 7 7 7 9 11 10 8 7 9 10 8 8 9 12 12 12 13 14 14 14 15 16 16 16 16 16 15 16 16 15
6 5 5 4 6 7 5 3 2 4 9 11 8 7 6 7 9 10 10 8 2 6 6 6 7 8 8 8 8 8 8 8 8 8 8 7 8 9 10 9 8 8 9 10 10 10 11 12 13 13 13 14 14 15 16 16 15 16 17 16 16 15 15
2 1 3 3 0 4 5 4 3 4 6 9 9 9 9 8 7 8 9 8 3 6 9 9 9 10 9 9 9 8 8 8 7 6 7 8 8 8 9 9 9 9 9 10 12 11 11 13 14 12 11 14 14 14 16 16 15 16 17 17 16 16 15
3 4 5 5 2 2 3 3 3 3 4 6 10 10 7 5 8 8 5 6 8 7 9 11 11 10 10 9 8 7 7 8 7 7 7 8 9 9 9 10 11 11 11 10 12 11 10 12 12 10 9 11 12 12 13 14 15 16 16 17 17 16 16
5 4 4 3 2 2 2 2 2 2 4 5 8 8 3 3 6 5 1 5 10 7 7 11 10 10 9 8 8 7 7 8 8 9 8 9 9 9 10 10 10 11 11 10 11 12 11 10 10 11 11 11 10 10 10 12 14 14 14 16 17 17 17
4 4 3 2 2 2 2 2 3 1 3 3 3 4 0 1 2 3 2 6 6 2 4 9 8 7 8 8 8 8 9 9 8 9 9 9 9 9 8 7 7 8 8 9 11 12 12 11 12 13 13 13 12 11 11 13 13 13 13 15 16 16 16
3 2 1 2 3 2 2 2 4 2 2 1 0 0 1 1 1 3 2 5 3 2 5 8 7 6 8 9 9 9 9 9 9 9 9 10 9 8 8 7 7 7 7 8 9 9 8 8 9 9 9 11 13 12 13 14 13 13 14 15 15 15 14
6 2 1 1 3 4 3 3 7 6 2 1 3 3 4 3 2 2 2 3 1 3 5 7 6 7 8 9 10 9 9 9 9 9 9 9 9 8 8 8 8 8 8 9 10 9 8 7 6 5 6 7 10 11 12 13 13 14 16 16 15 13 13
7 6 4 3 4 6 4 3 8 9 5 4 3 3 5 5 4 3 2 1 3 1 4 5 6 7 8 8 8 8 9 10 10 9 9 9 9 9 8 9 9 10 10 11 11 10 9 7 6 5 5 7 9 10 12 12 12 14 16 16 15 14 13
7 6 5 7 8 7 2 4 7 8 7 8 6 4 7 6 3 3 2 2 2 2 5 5 6 8 7 7 7 7 8 8 8 9 10 9 9 8 8 9 10 10 12 12 12 12 11 10 8 7 6 8 8 7 7 8 10 15 17 15 15 15 15
4 3 5 10 9 4 3 5 8 8 6 8 7 3 6 8 5 4 4 3 2 2 5 4 6 7 7 7 7 7 7 8 8 9 9 9 9 8 9 10 10 11 13 13 13 13 12 10 10 9 7 7 6 5 4 5 7 11 14 13 13 14 14
3 4 7 7 3 4 4 3 9 10 7 9 7 0 5 11 9 6 6 4 2 2 4 4 5 6 7 6 5 5 6 5 6 7 8 10 9 8 10 11 12 13 14 13 13 12 10 9 9 10 9 8 8 9 9 8 8 8 10 11 11 11 11
3 6 6 4 5 4 3 4 8 9 6 8 7 1 5 11 11 8 6 4 2 1 3 5 6 8 7 5 4 6 6 4 4 6 9 11 10 9 11 13 14 14 14 13 13 12 11 9 9 10 10 10 11 13 13 11 11 10 11 11 11 11 10
3 6 6 5 7 4 3 7 8 8 6 5 5 3 2 10 14 13 9 5 2 0 4 7 8 8 8 7 7 8 8 7 7 7 10 12 11 10 12 13 14 15 14 13 13 13 13 11 9 9 11 12 13 15 15 14 14 14 15 16 15 15 15
3 5 7 6 5 1 6 9 9 9 7 4 4 5 2 8 15 16 12 7 2 2 5 6 8 9 8 8 8 9 10 9 8 9 11 13 13 12 13 14 15 15 15 14 14 13 13 12 11 11 12 13 14 15 16 16 17 16 16 17 16 16 16
1 3 6 4 1 4 8 12 11 10 8 4 5 6 1 10 15 15 14 11 4 4 5 6 9 9 6 4 7 10 11 10 10 10 11 13 14 13 13 15 16 16 17 16 15 14 13 12 12 12 13 13 13 14 15 17 18 16 15 15 15 15 14
1 2 5 3 4 5 10 13 11 11 8 3 4 2 4 10 14 13 13 13 8 4 6 7 7 6 2 3 10 12 10 10 12 12 12 12 13 13 13 14 15 16 15 15 16 15 13 12 11 12 13 14 13 12 14 16 17 16 15 14 15 15 15
1 1 4 3 4 5 11 12 9 10 7 3 1 6 7 10 12 11 12 12 9 6 7 6 5 4 2 7 12 12 11 11 11 12 13 11 11 13 14 13 13 14 14 14 15 14 13 12 11 11 13 14 12 12 13 14 15 15 14 14 15 16 17
3 3 4 3 2 6 12 10 6 8 6 2 4 7 8 9 10 10 10 9 7 7 7 7 6 4 5 8 9 10 10 10 10 11 13 13 12 14 14 13 12 13 14 14 14 12 11 11 11 11 13 13 12 13 13 12 13 14 13 14 16 17 17
3 4 1 1 2 5 9 7 4 5 5 4 5 7 7 8 9 8 8 7 6 7 7 7 6 3 6 8 8 7 6 7 8 9 11 12 13 13 13 12 11 12 12 12 12 11 10 10 10 11 12 12 13 13 12 11 13 15 15 16 17 18 17
3 3 3 4 3 4 5 5 4 4 3 3 5 6 6 7 8 7 7 7 6 8 7 4 3 5 8 7 7 7 5 5 6 8 10 10 10 11 13 13 11 11 11 12 11 10 9 9 9 9 11 12 13 13 11 11 14 16 17 17 17 17 16
3 2 3 3 3 4 5 4 4 4 4 4 5 6 6 7 8 8 8 8 6 6 4 1 4 6 8 8 7 9 8 6 5 8 10 9 8 9 12 14 14 13 12 12 11 10 8 8 8 8 9 10 12 12 12 12 14 15 15 16 16 16 15
2 1 3 3 3 4 5 4 4 5 6 6 6 6 6 7 7 8 8 8 6 4 2 3 6 7 8 9 8 9 9 9 9 10 11 11 10 12 13 14 14 14 12 11 11 10 9 7 7 7 8 8 9 10 11 11 12 13 14 14 14 14 14
2 1 4 3 3 3 4 5 5 6 7 7 7 7 7 7 7 7 8 8 7 5 1 4 7 8 8 8 8 7 7 9 11 13 14 14 13 14 14 13 13 13 12 10 10 10 9 7 6 7 7 7 7 7 7 8 10 12 12 12 13 13 13
3 3 3 2 3 4 2 4 5 6 7 8 8 8 8 9 8 8 8 8 7 5 2 3 6 8 8 9 10 9 8 9 12 13 15 16 15 15 15 14 13 12 11 10 10 10 9 8 7 7 7 6 6 6 6 6 8 10 11 11 11 12 12
3 2 3 3 2 3 0 4 6 6 7 8 8 8 9 10 9 9 8 7 6 5 3 1 4 7 8 9 11 12 11 13 14 14 16 19 19 17 16 15 13 12 10 10 9 9 8 8 7 7 7 6 6 5 5 6 7 9 10 11 10 11 10
2 3 3 3 3 3 3 5 6 6 6 7 8 8 9 9 9 9 8 8 6 4 2 1 2 4 8 10 11 12 13 16 18 18 18 18 19 18 16 15 12 10 9 8 8 8 7 6 6 7 7 7 6 5 5 6 7 8 10 10 10 10 9
1 2 2 2 3 4 4 6 6 5 6 7 8 8 8 9 10 10 8 7 7 5 2 1 1 2 7 11 12 12 15 17 19 21 21 19 17 17 16 15 13 10 8 6 5 5 5 5 5 5 6 6 6 5 5 5 6 8 9 9 9 9 9
2 2 2 3 4 4 5 5 4 4 6 7 7 7 8 8 10 11 9 6 6 5 3 1 0 1 5 9 11 13 15 18 20 23 23 21 19 17 17 15 13 9 7 5 4 3 3 3 4 4 5 5 5 5 5 5 5 6 7 7 7 8 9
Wind_Direction
190 197 206 206 204 201 192 207 219 220 235 243 241 237 219 235 256 220 188 229 218 157 171 161 154 163 171 173 172 171 175 176 171 169 179 184 183 187 190 191 194 194 193 196 198 198 197 194 191 189 186 186 186 183 184 190 194 195 195 196 198 198 196
191 205 209 200 214 228 200 206 210 195 228 249 233 226 219 224 244 230 199 215 223 211 191 166 172 173 170 176 178 172 170 174 177 179 188 191 188 188 190 192 196 195 194 196 199 199 199 196 192 188 187 187 187 185 185 190 194 197 197 197 200 200 199
170 180 214 199 206 227 243 245 214 192 210 218 204 218 227 219 229 232 208 209 227 229 193 173 187 180 170 174 177 176 174 178 183 184 189 192 189 184 182 188 196 194 194 196 197 198 197 195 193 189 188 188 189 188 188 191 195 197 198 199 199 201 202
159 171 206 203 192 206 241 268 223 201 219 224 209 219 230 229 232 232 217 212 223 229 174 169 182 173 167 170 175 180 179 178 182 185 185 185 182 177 172 184 196 192 194 197 197 198 197 194 193 190 190 191 192 192 191 193 195 197 199 200 199 201 203
179 191 198 210 199 190 203 228 215 201 217 230 221 224 229 238 240 231 229 226 209 112 43 126 149 153 160 164 171 180 179 177 179 179 178 174 174 174 173 183 192 190 193 198 200 200 197 193 193 192 194 195 195 194 193 193 194 196 199 199 199 201 203
200 189 181 229 265 204 197 207 215 210 213 220 221 221 220 229 242 236 240 242 189 75 22 100 124 135 143 154 168 175 174 175 175 172 174 176 176 177 177 180 186 188 194 199 200 200 197 192 192 195 196 197 197 195 191 190 192 196 199 198 197 199 201
204 100 126 269 311 248 215 213 219 216 211 217 223 223 213 217 233 235 247 253 160 87 88 138 124 126 127 143 165 167 166 170 171 171 174 176 176 175 174 174 178 181 188 197 198 196 194 191 190 193 194 196 197 194 189 186 189 193 196 195 193 194 197
158 94 136 185 219 228 226 219 222 227 222 220 227 240 235 223 224 221 236 245 188 105 125 155 127 129 136 154 166 168 169 159 157 167 170 170 174 176 167 156 154 147 151 182 196 190 189 191 190 191 192 192 193 191 188 187 189 191 191 190 189 189 193
188 167 169 175 187 209 221 217 221 254 254 239 239 254 256 240 230 221 228 240 187 118 152 165 146 150 158 167 169 168 169 162 158 168 173 172 178 181 167 148 143 138 141 163 184 185 184 183 186 190 191 191 190 189 190 189 189 188 187 186 185 186 189
211 193 186 181 183 193 198 196 200 241 247 243 242 243 236 233 233 225 232 244 147 130 169 175 164 171 170 168 169 168 168 169 166 165 170 177 185 188 180 167 160 157 162 171 178 190 189 178 180 185 186 189 191 191 193 193 190 186 185 185 185 185 188
257 45 60 45 79 195 182 170 175 198 222 235 241 240 238 238 237 233 235 239 203 165 179 183 177 179 181 175 173 174 169 163 160 161 166 173 182 187 189 187 180 174 176 176 177 186 189 185 188 188 185 189 193 194 197 196 193 188 185 184 184 186 190
53 51 69 71 78 174 161 157 167 174 189 218 230 234 250 260 246 243 227 218 232 215 182 181 183 181 186 183 173 171 168 159 159 166 174 180 183 182 186 191 192 190 190 186 182 183 184 188 195 199 196 190 191 197 199 197 194 190 187 187 186 188 192
75 63 91 102 111 113 111 121 125 171 191 209 228 233 268 298 252 260 244 210 241 241 177 172 177 177 181 179 166 164 171 172 168 170 179 187 183 180 184 187 190 194 192 186 186 189 188 189 194 203 206 196 189 193 197 200 199 192 189 190 188 188 191
95 71 100 168 192 147 141 109 71 109 194 194 225 220 185 325 266 322 310 221 235 265 153 155 158 165 170 168 169 173 178 180 174 171 177 182 177 173 173 169 171 182 183 178 185 190 191 194 197 202 207 205 199 194 197 205 203 194 195 196 192 191 193
165 81 58 215 227 215 171 104 52 18 205 168 19 107 31 301 308 8 304 215 190 73 111 131 140 158 165 166 174 178 176 174 172 172 176 172 165 157 147 138 144 154 153 156 166 170 170 178 186 187 191 200 202 200 203 209 205 200 206 205 197 194 195
200 182 284 237 244 251 201 105 31 3 337 17 26 41 16 344 335 332 265 220 145 84 109 124 146 168 172 173 176 175 171 170 172 174 170 157 146 143 141 136 134 133 127 129 133 129 121 120 128 138 153 177 191 196 202 205 200 201 210 212 206 202 200
214 209 260 269 246 245 216 88 20 5 7 4 12 68 41 6 336 304 276 354 21 87 139 144 169 182 181 178 175 173 172 172 174 174 167 154 146 146 144 133 128 127 125 126 127 124 122 124 133 150 170 185 193 200 204 200 195 201 209 212 209 206 203
229 218 258 258 238 235 226 47 16 1 7 2 354 37 44 26 2 346 340 3 2 206 180 176 189 193 188 177 172 173 174 172 174 177 171 154 143 144 137 126 123 122 121 122 121 119 122 128 136 150 170 185 190 198 203 198 199 207 211 210 207 205 203
258 234 241 244 235 208 111 55 18 359 354 355 346 13 44 32 21 360 338 340 344 235 200 190 195 192 185 178 172 176 182 181 182 180 163 136 132 143 139 127 123 123 122 123 122 120 122 124 125 126 132 143 142 128 134 148 170 196 203 203 201 201 200
266 242 231 235 215 115 116 61 18 8 357 354 343 33 55 23 6 352 348 359 359 244 200 180 181 176 173 175 170 176 190 190 191 184 153 129 129 138 134 130 130 129 126 123 123 123 123 119 112 107 108 112 108 103 107 114 123 149 169 176 184 188 190
260 255 243 210 175 142 95 34 19 11 357 349 336 298 58 25 6 352 350 358 355 233 172 158 157 155 161 178 181 182 181 174 182 174 142 130 132 132 133 135 133 130 127 125 125 125 122 117 106 101 106 111 108 105 105 109 116 125 130 133 141 148 152
260 262 250 222 211 197 53 29 16 4 349 337 319 276 74 30 8 350 341 345 354 160 154 154 160 166 180 196 189 176 170 167 169 153 129 126 133 136 136 134 129 128 128 127 128 127 122 116 110 108 112 114 113 111 109 110 111 110 110 112 113 115 117
253 260 248 245 238 191 31 7 356 354 347 328 282 238 168 30 3 344 334 333 324 182 168 171 181 188 197 200 180 162 163 164 151 134 124 123 131 138 138 133 127 126 127 126 125 123 119 115 115 118 116 113 112 110 109 111 109 103 102 106 105 104 106
249 268 256 256 158 74 16 350 343 346 346 323 253 223 114 11 351 336 328 322 298 198 187 197 201 206 221 206 154 144 154 150 123 113 122 128 134 139 136 129 125 125 127 128 124 119 115 114 118 120 116 110 106 103 106 111 108 100 98 101 102 104 106
188 244 256 248 109 63 358 343 342 338 326 277 242 261 352 343 331 324 319 310 295 238 210 211 215 227 261 100 116 122 133 133 118 115 125 131 136 136 127 125 128 128 128 127 122 119 118 118 120 118 112 105 100 99 102 105 106 105 103 100 97 98 99
284 253 267 253 125 52 347 334 343 342 318 242 306 340 328 317 318 320 313 302 292 263 230 219 224 227 150 114 118 120 118 116 116 120 119 117 124 129 126 128 130 126 124 123 120 121 124 124 123 117 108 103 101 100 97 97 104 110 110 105 100 97 96
280 236 255 264 142 44 356 339 358 12 359 347 342 329 316 318 325 325 318 307 294 281 255 226 218 207 155 131 125 125 122 119 126 133 126 118 126 132 131 134 132 126 125 124 121 121 122 120 122 120 112 106 105 101 96 99 111 117 113 109 107 104 103
291 259 259 347 32 35 14 7 36 37 15 349 327 317 319 330 334 333 328 319 312 311 288 242 212 157 111 102 93 89 97 106 122 133 129 129 140 142 135 133 132 128 126 122 118 119 119 115 116 118 116 113 110 106 101 105 115 119 117 114 110 107 107
358 357 46 68 59 38 34 46 60 42 13 346 326 322 328 336 342 344 335 324 328 333 316 267 188 112 98 95 93 92 86 82 109 128 130 133 142 137 126 124 126 126 122 118 117 120 119 118 119 120 120 120 117 115 115 116 119 120 120 118 114 113 114
91 64 67 91 87 56 47 60 65 45 26 10 345 338 346 349 349 350 343 335 335 331 317 244 143 127 122 120 114 108 98 84 93 115 122 124 119 107 105 108 110 112 111 110 113 113 108 109 117 121 123 124 121 123 128 130 130 130 127 123 121 121 121
187 158 88 93 97 65 47 43 47 39 28 18 3 354 355 354 353 357 353 347 344 330 287 164 154 154 144 129 114 108 103 92 80 77 81 86 93 95 95 95 99 103 104 104 105 102 93 90 99 108 118 121 122 129 138 142 143 142 138 132 128 127 127
246 118 87 99 135 102 58 35 31 27 16 12 9 4 359 358 3 9 5 359 358 351 317 159 156 160 156 136 118 116 114 103 94 88 83 79 81 87 90 89 90 93 96 98 97 93 88 83 83 91 101 108 116 128 137 144 151 151 147 142 139 136 133
226 149 106 105 183 174 104 34 20 12 3 359 0 2 3 7 11 13 13 16 17 13 18 137 144 147 149 136 124 123 124 114 107 105 102 94 84 77 78 79 78 80 83 85 84 83 83 82 83 87 91 100 114 122 125 139 153 156 154 154 150 145 140
240 138 77 30 288 236 35 18 359 352 353 348 348 356 2 6 10 10 9 15 23 27 28 172 167 153 149 143 134 128 126 123 116 108 105 104 99 90 81 73 69 69 73 76 78 77 75 76 83 90 94 102 110 112 118 135 148 153 156 157 155 151 149
343 49 50 20 320 297 348 356 337 340 348 339 336 348 355 357 4 9 10 9 11 21 24 311 236 173 162 159 148 132 123 123 122 119 116 110 105 101 94 86 79 75 71 72 77 78 76 77 85 93 98 103 106 105 114 129 140 150 155 156 157 159 154
359 41 34 358 307 300 322 330 326 334 342 332 329 336 342 346 353 360 8 14 11 7 12 336 290 192 175 173 166 149 136 132 131 129 124 117 110 106 103 98 95 92 85 80 80 82 86 92 96 100 104 105 102 103 112 123 135 148 155 157 156 154 144
316 349 353 318 296 297 307 310 314 332 339 334 328 327 331 336 342 347 356 9 12 7 7 9 308 206 187 186 179 161 148 145 142 136 131 130 129 126 123 120 118 117 113 107 100 100 113 123 123 120 118 115 107 99 100 109 121 134 148 155 147 137 138